EW1850 Weather Reports


Display with metric or nautical units.
time (UTC)temp
F
wind
direction
speed
MPH
gust
MPH
rain 1hr
in
rain 24hr
in
rain mn
in
humidity
%
barometer
mb
20260510202715 76 360 0.0 4.0 0.00 0.00 0.00 100 1005.1
20260510201716 76 42 0.0 2.0 0.00 0.00 0.00 100 1005.4
20260510200730 75 26 2.0 7.0 0.00 0.00 0.00 100 1005.4
20260510195716 74 27 0.0 2.0 0.00 0.00 0.00 100 1005.4
20260510193815 73 68 2.0 6.0 0.00 0.00 0.00 100 1005.4
20260510192815 74 41 3.0 6.0 0.00 0.00 0.00 100 1005.4
20260510191815 75 1 2.0 6.0 0.00 0.00 0.00 100 1005.4
20260510190816 76 42 0.0 5.0 0.00 0.00 0.00 100 1005.1
20260510185816 77 350 1.0 6.0 0.00 0.00 0.00 100 1004.8
20260510185717 77 347 2.0 6.0 0.00 0.00 0.00 100 1004.8
20260510184815 79 179 0.0 2.0 0.00 0.00 0.00 100 1004.4
20260510183817 81 338 0.0 5.0 0.00 0.00 0.00 100 1004.4
20260510182815 83 316 0.0 1.0 0.00 0.00 0.00 100 1004.1
20260510181815 83 18 0.0 2.0 0.00 0.00 0.00 100 1004.1
20260510181715 83 57 2.0 7.0 0.00 0.00 0.00 100 1004.1
20260510180616 82 31 0.0 3.0 0.00 0.00 0.00 100 1004.1
20260510175615 82 8 0.0 4.0 0.00 0.00 0.00 100 1004.1
20260510174614 83 320 0.0 4.0 0.00 0.00 0.00 100 1004.4
20260510173615 83 48 0.0 2.0 0.00 0.00 0.00 100 1004.4
20260510172615 83 76 1.0 4.0 0.00 0.00 0.00 100 1004.8
20260510172516 83 68 2.0 7.0 0.00 0.00 0.00 100 1004.8
20260510171515 82 353 0.0 2.0 0.00 0.00 0.00 100 1004.8
20260510170516 82 11 0.0 3.0 0.00 0.00 0.00 100 1004.8
20260510165516 82 64 0.0 0.0 0.00 0.00 0.00 100 1004.8
20260510164517 83 47 0.0 1.0 0.00 0.00 0.00 100 1004.8
20260510163614 81 165 0.0 4.0 0.00 0.00 0.00 100 1004.8
20260510161616 80 28 1.0 3.0 0.00 0.00 0.00 100 1004.8
20260510161516 80 5 0.0 1.0 0.00 0.00 0.00 100 1004.8
20260510160614 79 337 0.0 0.0 0.00 0.00 0.00 100 1004.8
20260510155615 78 67 2.0 6.0 0.00 0.00 0.00 100 1004.8
20260510154714 78 21 0.0 3.0 0.00 0.00 0.00 100 1004.8
20260510152715 76 19 0.0 3.0 0.00 0.00 0.00 100 1004.4
20260510150715 75 22 0.0 0.0 0.00 0.00 0.00 100 1004.4
20260510145716 74 67 0.0 1.0 0.00 0.00 0.00 100 1004.1
20260510144814 75 67 0.0 0.0 0.00 0.00 0.00 100 1004.1
20260510143815 75 67 0.0 0.0 0.00 0.00 0.00 100 1004.1
20260510142815 73 45 0.0 1.0 0.00 0.00 0.00 100 1004.1
20260510141817 72 45 0.0 0.0 0.00 0.00 0.00 100 1004.1
20260510135915 69 90 0.0 3.0 0.00 0.00 0.00 100 1004.1
20260510134916 68 247 0.0 0.0 0.00 0.00 0.00 100 1004.4
20260510133914 68 90 0.0 0.0 0.00 0.00 0.00 100 1004.1
20260510132915 67 247 0.0 0.0 0.00 0.00 0.00 100 1004.1
20260510132014 67 225 0.0 0.0 0.00 0.00 0.00 100 1003.8
20260510131015 66 225 0.0 1.0 0.00 0.00 0.00 100 1004.1
20260510125014 64 270 0.0 0.0 0.00 0.00 0.00 100 1003.8
20260510124016 64 292 0.0 0.0 0.00 0.00 0.00 100 1003.8
20260510123016 63 295 0.0 0.0 0.00 0.00 0.00 100 1003.8
20260510122015 61 277 0.0 0.0 0.00 0.00 0.00 100 1003.8
20260510120015 61 315 0.0 0.0 0.00 0.00 0.00 100 1003.4
20260510115114 59 292 0.0 0.0 0.00 0.00 0.00 100 1003.3
20260510114114 58 247 0.0 0.0 0.00 0.01 0.00 100 1003.1
20260510113114 57 247 0.0 0.0 0.00 0.01 0.00 100 1003.0
20260510112115 57 315 0.0 0.0 0.00 0.01 0.00 100 1002.7
20260510110230 57 315 0.0 0.0 0.00 0.01 0.00 100 1002.4
20260510105215 57 247 0.0 0.0 0.00 0.01 0.00 100 1002.4
20260510103314 57 247 0.0 0.0 0.00 0.01 0.00 100 1002.4
20260510103215 57 247 0.0 0.0 0.00 0.01 0.00 100 1002.4
20260510101216 58 247 0.0 0.0 0.00 0.02 0.00 100 1002.4
20260510100215 58 247 0.0 0.0 0.00 0.02 0.00 100 1002.0
20260510095215 57 247 0.0 0.0 0.00 0.02 0.00 100 1002.4
20260510094314 57 247 0.0 0.0 0.00 0.02 0.00 100 1002.4
20260510092316 58 247 0.0 0.0 0.00 0.02 0.00 100 1002.4
20260510091316 58 202 0.0 0.0 0.00 0.03 0.00 100 1002.0
20260510090414 58 286 0.0 0.0 0.00 0.03 0.00 100 1002.0
20260510085417 57 310 0.0 0.0 0.00 0.03 0.00 100 1001.7
20260510084417 57 202 0.0 0.0 0.00 0.03 0.00 100 1001.3
20260510082414 57 202 0.0 0.0 0.00 0.04 0.00 100 1001.3
20260510081415 57 202 0.0 0.0 0.00 0.04 0.00 100 1001.0
20260510080415 58 202 0.0 0.0 0.00 0.05 0.00 100 1001.0
20260510073414 59 202 0.0 0.0 0.00 0.06 0.00 100 1001.3
20260510072316 59 202 0.0 0.0 0.00 0.06 0.00 100 1001.0
20260510071314 60 202 0.0 0.0 0.00 0.06 0.00 100 1000.6
20260510065315 60 202 0.0 0.0 0.00 0.06 0.00 100 1000.6
20260510063316 60 202 0.0 0.0 0.00 0.06 0.00 100 1000.3
20260510062313 61 202 0.0 0.0 0.00 0.06 0.00 100 1000.3
20260510061314 61 202 0.0 0.0 0.00 0.06 0.00 100 1000.6
20260510060315 61 202 0.0 0.0 0.00 0.06 0.00 100 1000.6
20260510053316 60 202 0.0 0.0 0.00 0.06 0.00 100 1000.6
20260510052414 60 202 0.0 0.0 0.00 0.06 0.00 100 1000.6
20260510051415 60 202 0.0 0.0 0.00 0.06 0.00 100 1000.6
20260510045416 59 202 0.0 0.0 0.00 0.06 0.06 100 1000.6
20260510044415 60 202 0.0 0.0 0.00 0.06 0.06 100 1000.6
20260510043415 60 202 0.0 0.0 0.00 0.06 0.06 100 1000.6
20260510041415 61 202 0.0 0.0 0.00 0.06 0.06 100 1000.6
20260510040415 61 202 0.0 0.0 0.00 0.06 0.06 100 1000.3
20260510034516 62 202 0.0 0.0 0.00 0.06 0.06 100 1000.3
20260510033615 62 202 0.0 0.0 0.00 0.06 0.06 100 1000.3
20260510032617 63 202 0.0 0.0 0.00 0.06 0.06 100 1000.3
20260510031715 63 202 0.0 0.0 0.00 0.06 0.06 100 1000.3
20260510030716 63 202 0.0 0.0 0.00 0.06 0.06 100 1000.3
20260510030617 63 202 0.0 0.0 0.00 0.06 0.06 100 1000.3
20260510025714 63 202 0.0 0.0 0.00 0.06 0.06 100 1000.3
20260510024715 63 202 0.0 0.0 0.00 0.06 0.06 100 1000.3
20260510023716 63 202 0.0 0.0 0.00 0.06 0.06 100 1000.3
20260510022716 63 202 0.0 0.0 0.00 0.06 0.06 100 1000.0
20260510021717 64 202 0.0 0.0 0.00 0.06 0.06 100 1000.0
20260510020716 64 202 0.0 0.0 0.00 0.06 0.06 100 1000.0
20260510014716 65 202 0.0 0.0 0.00 0.06 0.06 100 999.3
20260510012715 66 202 0.0 0.0 0.00 0.06 0.06 100 999.0
20260510011715 67 202 0.0 0.0 0.00 0.06 0.06 100 999.0
20260510010716 67 202 0.0 0.0 0.00 0.06 0.06 100 998.6
20260510005716 68 202 0.0 0.0 0.00 0.06 0.06 100 998.6
20260510003714 70 202 0.0 0.0 0.00 0.06 0.06 100 998.3
20260510002718 70 202 0.0 0.0 0.00 0.06 0.06 100 998.3
20260510000814 71 202 0.0 0.0 0.00 0.06 0.06 100 997.9
20260509235830 72 202 0.0 0.0 0.00 0.06 0.06 100 997.9
20260509234817 73 202 0.0 0.0 0.00 0.06 0.06 100 997.9
20260509233915 73 180 0.0 0.0 0.00 0.06 0.06 100 997.9
20260509232916 74 180 0.0 0.0 0.00 0.06 0.06 100 997.9
20260509231915 75 180 0.0 0.0 0.00 0.06 0.06 100 997.9
20260509230916 74 180 0.0 0.0 0.00 0.06 0.06 100 998.3
20260509225914 76 180 0.0 0.0 0.00 0.06 0.06 100 997.9
20260509224915 78 180 0.0 0.0 0.00 0.06 0.06 100 997.9
20260509223918 80 180 0.0 1.0 0.00 0.06 0.06 100 997.9
20260509223014 84 135 0.0 3.0 0.00 0.06 0.06 100 997.6
20260509222016 85 157 0.0 0.0 0.00 0.06 0.06 100 997.2
20260509221015 86 180 0.0 0.0 0.00 0.06 0.06 100 997.6
20260509220017 85 180 0.0 0.0 0.00 0.06 0.06 100 997.6
20260509214015 85 157 0.0 0.0 0.00 0.06 0.06 100 997.6
20260509213016 85 67 0.0 0.0 0.00 0.06 0.06 100 997.6
20260509212115 85 180 0.0 0.0 0.00 0.06 0.06 100 997.6
20260509211115 85 180 0.0 0.0 0.00 0.06 0.06 100 997.6
20260509210214 84 135 0.0 0.0 0.00 0.06 0.06 100 997.6